Time,TemperatureF,DewpointF,PressureIn,WindDirection,WindDirectionDegrees,WindSpeedMPH,WindSpeedGustMPH,Humidity,HourlyPrecipIn,Conditions,Clouds,dailyrainin,SolarRadiationWatts/m^2,SoftwareType,DateUTC
2017-03-24 00:02:00,62.9,46.0,30.30,East,93,0.0,10.0,54,0.00,,,0.00,0,weatherlink.com 1.10,2017-03-24 06:02:00,
2017-03-24 00:16:00,62.0,46.0,30.31,East,93,0.0,0.0,56,0.00,,,0.00,0,weatherlink.com 1.10,2017-03-24 06:16:00,
2017-03-24 00:32:00,60.4,44.0,30.32,WNW,299,11.0,27.0,56,0.00,,,0.00,0,weatherlink.com 1.10,2017-03-24 06:32:00,
2017-03-24 00:47:00,59.6,45.0,30.31,North,355,11.0,14.0,59,0.00,,,0.00,0,weatherlink.com 1.10,2017-03-24 06:47:00,
2017-03-24 01:02:00,59.4,46.0,30.31,NNW,336,5.0,16.0,61,0.00,,,0.00,0,weatherlink.com 1.10,2017-03-24 07:02:00,
2017-03-24 01:17:00,59.3,46.0,30.31,NNE,26,9.0,10.0,61,0.00,,,0.00,0,weatherlink.com 1.10,2017-03-24 07:17:00,
2017-03-24 01:32:00,59.0,46.0,30.31,NNE,26,0.0,2.0,62,0.00,,,0.00,0,weatherlink.com 1.10,2017-03-24 07:32:00,
2017-03-24 01:47:00,58.6,46.0,30.30,NNE,26,0.0,0.0,64,0.00,,,0.00,0,weatherlink.com 1.10,2017-03-24 07:47:00,
2017-03-24 02:02:00,58.5,45.0,30.30,NNE,26,0.0,9.0,61,0.00,,,0.00,0,weatherlink.com 1.10,2017-03-24 08:02:00,
2017-03-24 02:17:00,58.3,45.0,30.30,NNE,26,0.0,0.0,62,0.00,,,0.00,0,weatherlink.com 1.10,2017-03-24 08:17:00,
2017-03-24 02:32:00,58.0,45.0,30.30,NNE,26,0.0,0.0,63,0.00,,,0.00,0,weatherlink.com 1.10,2017-03-24 08:32:00,
2017-03-24 02:47:00,57.7,46.0,30.30,NNE,26,0.0,0.0,65,0.00,,,0.00,0,weatherlink.com 1.10,2017-03-24 08:47:00,
2017-03-24 03:02:00,57.3,46.0,30.29,NNE,26,0.0,1.0,66,0.00,,,0.00,0,weatherlink.com 1.10,2017-03-24 09:02:00,
2017-03-24 03:17:00,57.1,46.0,30.29,NNE,26,0.0,2.0,67,0.00,,,0.00,0,weatherlink.com 1.10,2017-03-24 09:17:00,
2017-03-24 03:32:00,57.1,46.0,30.29,NNE,26,0.0,0.0,66,0.00,,,0.00,0,weatherlink.com 1.10,2017-03-24 09:32:00,
2017-03-24 03:47:00,57.2,46.0,30.29,NNE,26,0.0,0.0,66,0.00,,,0.00,0,weatherlink.com 1.10,2017-03-24 09:47:00,
2017-03-24 04:02:00,57.1,45.0,30.29,NNE,26,0.0,0.0,64,0.00,,,0.00,0,weatherlink.com 1.10,2017-03-24 10:02:00,
2017-03-24 04:17:00,56.9,45.0,30.29,NNE,26,0.0,0.0,64,0.00,,,0.00,0,weatherlink.com 1.10,2017-03-24 10:17:00,
2017-03-24 04:32:00,56.8,45.0,30.29,NNE,26,0.0,0.0,64,0.00,,,0.00,0,weatherlink.com 1.10,2017-03-24 10:32:00,
2017-03-24 04:47:00,56.2,44.0,30.29,NNE,26,0.0,0.0,63,0.00,,,0.00,0,weatherlink.com 1.10,2017-03-24 10:47:00,
2017-03-24 05:02:00,55.6,43.0,30.29,NNE,26,0.0,0.0,64,0.00,,,0.00,0,weatherlink.com 1.10,2017-03-24 11:02:00,
2017-03-24 05:17:00,54.9,44.0,30.30,NNE,26,0.0,0.0,67,0.00,,,0.00,0,weatherlink.com 1.10,2017-03-24 11:17:00,
2017-03-24 05:32:00,54.2,45.0,30.30,NNE,26,0.0,0.0,70,0.00,,,0.00,0,weatherlink.com 1.10,2017-03-24 11:32:00,
2017-03-24 05:47:00,53.6,45.0,30.30,NNE,26,0.0,0.0,72,0.00,,,0.00,0,weatherlink.com 1.10,2017-03-24 11:47:00,
2017-03-24 06:02:00,53.3,45.0,30.31,NNE,26,0.0,0.0,74,0.00,,,0.00,0,weatherlink.com 1.10,2017-03-24 12:02:00,
2017-03-24 06:17:00,53.2,45.0,30.31,NNE,26,0.0,0.0,74,0.00,,,0.00,0,weatherlink.com 1.10,2017-03-24 12:17:00,
2017-03-24 06:32:00,53.1,45.0,30.32,NNE,26,0.0,0.0,75,0.00,,,0.00,0,weatherlink.com 1.10,2017-03-24 12:32:00,
2017-03-24 06:47:00,53.0,45.0,30.32,NNE,26,0.0,0.0,74,0.00,,,0.00,7,weatherlink.com 1.10,2017-03-24 12:47:00,
2017-03-24 07:02:00,53.1,45.0,30.32,NNE,26,0.0,0.0,75,0.00,,,0.00,21,weatherlink.com 1.10,2017-03-24 13:02:00,
2017-03-24 07:17:00,53.5,45.0,30.33,NNE,26,0.0,5.0,73,0.00,,,0.00,37,weatherlink.com 1.10,2017-03-24 13:17:00,
2017-03-24 07:32:00,54.1,45.0,30.33,NNE,26,0.0,2.0,72,0.00,,,0.00,100,weatherlink.com 1.10,2017-03-24 13:32:00,
2017-03-24 07:47:00,54.9,46.0,30.33,NNE,26,0.0,1.0,71,0.00,,,0.00,176,weatherlink.com 1.10,2017-03-24 13:47:00,
2017-03-24 08:03:00,56.0,46.0,30.33,NNE,26,0.0,0.0,70,0.00,,,0.00,236,weatherlink.com 1.10,2017-03-24 14:03:00,
2017-03-24 08:18:00,58.8,47.0,30.34,NNE,26,0.0,0.0,66,0.00,,,0.00,292,weatherlink.com 1.10,2017-03-24 14:18:00,
2017-03-24 08:33:00,61.1,48.0,30.34,NNE,26,6.0,9.0,62,0.00,,,0.00,346,weatherlink.com 1.10,2017-03-24 14:33:00,
2017-03-24 08:48:00,62.4,48.0,30.34,NNE,12,12.0,16.0,60,0.00,,,0.00,397,weatherlink.com 1.10,2017-03-24 14:48:00,
2017-03-24 09:03:00,63.6,50.0,30.34,NNE,13,13.0,22.0,61,0.00,,,0.00,445,weatherlink.com 1.10,2017-03-24 15:03:00,
2017-03-24 09:18:00,65.5,51.0,30.34,NE,38,0.0,19.0,59,0.00,,,0.00,432,weatherlink.com 1.10,2017-03-24 15:18:00,
2017-03-24 09:33:00,67.8,51.0,30.34,NW,316,19.0,20.0,56,0.00,,,0.00,445,weatherlink.com 1.10,2017-03-24 15:33:00,
2017-03-24 09:48:00,69.3,53.0,30.34,NNW,338,25.0,27.0,56,0.00,,,0.00,585,weatherlink.com 1.10,2017-03-24 15:48:00,
2017-03-24 10:03:00,71.6,53.0,30.34,NNW,340,21.0,37.0,52,0.00,,,0.00,629,weatherlink.com 1.10,2017-03-24 16:03:00,
2017-03-24 10:18:00,72.8,54.0,30.34,WNW,288,26.0,46.0,51,0.00,,,0.00,673,weatherlink.com 1.10,2017-03-24 16:18:00,
2017-03-24 10:33:00,73.9,53.0,30.34,NNE,15,19.0,41.0,49,0.00,,,0.00,701,weatherlink.com 1.10,2017-03-24 16:33:00,